This demonstration page uses our WeatherBlox Daily Observations layout. Learn more.

41.55636, -103.73856

Hourly Observations for February 9, 2019

Temp ( °F °C ) Dew Point ( °F °C ) Humidity (%) Winds ( mph kmh ) Pressure ( in mb ) Visibility ( mi km ) Precip ( " mm )
12:58 am 00:58 Mostly Cloudy 19 -7.4 13 -10.3 80 80 S 15 24 30.25 1025 10 16.0934 N/A
1:58 am 01:58 Clear 16 -9 12 -10.9 86 86 S 13 20 30.28 1025 10 16.0934 N/A
2:58 am 02:58 Mostly Cloudy 17 -8.6 15 -9.7 92 92 S 16 26 30.25 1025 9 14.48406 N/A
3:58 am 03:58 Mostly Cloudy 15 -9.5 12 -10.9 90 90 S 16 26 30.22 1023 10 16.0934 N/A
4:58 am 04:58 Clear 14 -9.8 12 -11.3 89 89 S 12 19 30.19 1022 10 16.0934 N/A
5:58 am 05:58 Mostly Cloudy 16 -8.7 13 -10.5 87 87 S 17 28 30.14 1021 10 16.0934 N/A
6:58 am 06:58 Mostly Cloudy 16 -9 12 -11 86 86 SSW 16 26 30.14 1021 10 16.0934 N/A
7:58 am 07:58 Mostly Cloudy 16 -8.8 12 -11 84 84 WSW 10 17 30.14 1021 10 16.0934 N/A
8:58 am 08:58 Partly Cloudy 17 -8.1 10 -12.2 73 73 WSW 10 17 30.14 1021 10 16.0934 N/A
9:58 am 09:58 Clear 16 -9.1 4 -15.8 59 59 W 9 15 30.14 1021 10 16.0934 N/A
10:58 am 10:58 Clear 16 -8.9 3 -15.9 57 57 W 5 7 30.16 1022 10 16.0934 N/A
11:58 am 11:58 Clear 19 -7.1 4 -15.8 50 50 S 7 11 30.16 1021 10 16.0934 N/A
12:58 pm 12:58 Clear 19 -7.3 3 -16 50 50 S 9 15 30.19 1022 10 16.0934 N/A
1:58 pm 13:58 Clear 18 -7.7 2 -16.6 49 49 S 7 11 30.22 1023 10 16.0934 N/A
2:58 pm 14:58 Sunny 22 -5.6 4 -15.5 46 46 S 7 11 30.21 1023 10 16.0934 N/A
3:58 pm 15:58 Sunny 30 -1.3 6 -14.7 36 36 SSE 6 9 30.19 1022 10 16.0934 N/A
4:58 pm 16:58 Sunny 30 -0.9 10 -12.2 42 42 ENE 7 11 30.2 1023 10 16.0934 N/A
5:58 pm 17:58 Sunny 32 -0.2 12 -11 44 44 E 8 13 30.17 1022 10 16.0934 N/A
6:58 pm 18:58 Sunny 31 -0.7 12 -11.3 45 45 E 15 24 30.16 1022 10 16.0934 N/A
7:58 pm 19:58 Sunny 28 -2.1 15 -9.5 57 57 ENE 16 26 30.13 1020 10 16.0934 N/A
8:58 pm 20:58 Sunny 26 -3.2 17 -8.3 68 68 ENE 15 24 30.13 1020 10 16.0934 N/A
9:58 pm 21:58 Sunny 24 -4.7 18 -7.8 79 79 ENE 12 19 30.14 1021 10 16.0934 N/A
10:58 pm 22:58 Mostly Sunny 22 -5.6 18 -8 83 83 ENE 10 17 30.14 1021 10 16.0934 N/A

Powered by AerisWeather